Weather History for Pompano Beach, FL

Change the Weather History Date:

Monday, November 19, 2012

  Actual Average Record
Temperature  
Mean Temperature 65 °F -  
Max Temperature 71 °F 82 °F 90 °F (1957)
Min Temperature 59 °F 65 °F 40 °F (1951)
Growing Degree Days 15 (Base 50)    
Moisture  
Dew Point 59 °F    
Average Humidity 85    
Maximum Humidity 100    
Minimum Humidity 63    
Precipitation  
Precipitation 0.00 in - - ()
Sea Level Pressure  
Sea Level Pressure 30.08 in    
Wind  
Wind Speed 10 mph (NNW)    
Max Wind Speed 15 mph    
Max Gust Speed 21 mph    
Visibility 10 miles    
Events      
Averages and records for this station are not official NWS values.
T = Trace of Precipitation, MM = Missing Value Source: NWS Daily Summary

Daily Weather History Graph

Daily Weather History Graph

Search for Another Location

Airport:

Trip Planner

Search our weather history database for the weather conditions in past years. The results will help you decide how hot, cold, wet, or windy it might be!

Date:

Astronomy

Nov. 19, 2012 Rise Set
Actual Time 6:42 AM EST 5:29 PM EST
Civil Twilight 6:17 AM EST 5:53 PM EST
Nautical Twilight 5:49 AM EST 6:21 PM EST
Astronomical Twilight 5:22 AM EST 6:49 PM EST
Moon 11:56 AM EST (11/19) 11:39 PM EST (11/19)
Length of Visible Light 11h 36m
Length of Day
10h 46m
Waxing Crescent, 40% of the Moon is Illuminated
Nov 19
Waxing Crescent
Nov 20
First Quarter
Nov 28
Full
Dec 6
Last Quarter
Dec 13
New

Hourly Weather History & Observations

Time (EST) Temp. Dew Point Humidity Pressure Visibility Wind Dir Wind Speed Gust Speed Precip Events Conditions
12:53 AM 64.9 °F 64.9 °F 100% 30.10 in 10.0 mi NNW 10.4 mph - N/A   Clear
1:53 AM 64.9 °F 64.0 °F 97% 30.09 in 10.0 mi NNW 9.2 mph - N/A   Clear
2:53 AM 64.0 °F 63.0 °F 96% 30.08 in 10.0 mi NNW 11.5 mph - N/A   Clear
3:53 AM 63.0 °F 62.1 °F 97% 30.09 in 10.0 mi NNW 10.4 mph - N/A   Clear
4:53 AM 62.1 °F 62.1 °F 100% 30.10 in 10.0 mi NNW 9.2 mph - N/A   Clear
5:53 AM 60.1 °F 60.1 °F 100% 30.11 in 10.0 mi NNW 8.1 mph - N/A   Clear
6:53 AM 59.0 °F 59.0 °F 100% 30.11 in 10.0 mi NNW 8.1 mph - N/A   Clear
7:53 AM 61.0 °F 59.0 °F 93% 30.12 in 10.0 mi NNW 9.2 mph - N/A   Clear
8:53 AM 64.0 °F 59.0 °F 84% 30.13 in 10.0 mi NNW 10.4 mph - N/A   Clear
9:53 AM 64.9 °F 59.0 °F 81% 30.13 in 10.0 mi NNW 11.5 mph - N/A   Clear
10:53 AM 66.9 °F 59.0 °F 76% 30.12 in 10.0 mi WNW 9.2 mph - N/A   Clear
11:53 AM 68.0 °F 55.0 °F 63% 30.10 in 10.0 mi NNW 11.5 mph 20.7 mph N/A   Clear
12:53 PM 70.0 °F 57.0 °F 63% 30.07 in 10.0 mi NW 12.7 mph - N/A   Clear
1:53 PM 70.0 °F 57.9 °F 65% 30.04 in 10.0 mi NW 8.1 mph - N/A   Clear
2:53 PM 71.1 °F 57.9 °F 63% 30.02 in 10.0 mi NW 11.5 mph - N/A   Clear
3:53 PM 70.0 °F 57.9 °F 65% 30.02 in 10.0 mi NW 12.7 mph - N/A   Clear
4:53 PM 64.9 °F 57.9 °F 78% 30.04 in 10.0 mi NW 15.0 mph - N/A   Clear
5:51 PM 64.4 °F 57.2 °F 77% 30.04 in 10.0 mi NNW 9.2 mph - N/A   Mostly Cloudy
5:53 PM 64.0 °F 57.9 °F 80% 30.05 in 10.0 mi North 11.5 mph - N/A   Mostly Cloudy
6:53 PM 63.0 °F 57.9 °F 84% 30.06 in 10.0 mi NNW 12.7 mph - N/A   Overcast
7:53 PM 62.1 °F 57.9 °F 86% 30.07 in 10.0 mi NNW 9.2 mph - N/A   Overcast
8:53 PM 62.1 °F 57.9 °F 86% 30.08 in 10.0 mi NW 11.5 mph - N/A   Overcast
10:34 PM 60.8 °F 59.0 °F 94% 30.05 in 10.0 mi North 9.2 mph - N/A   Overcast
10:53 PM 61.0 °F 59.0 °F 93% 30.05 in 10.0 mi NW 6.9 mph - N/A   Overcast
11:53 PM 61.0 °F 59.0 °F 93% 30.04 in 10.0 mi NW 8.1 mph - N/A   Overcast